La Porte, IN

2:41 AM CST on November 23, 2017 (GMT -0600)
La Porte Municipal

Weather History for KPPO - September, 2014

Change the Weather History Date:

Wednesday, September 10, 2014

  Actual Average (KSBN) Record (KSBN)
Temperature  
Mean Temperature 67 °F -  
Max Temperature 75 °F 76 °F 97 °F (2013)
Min Temperature 59 °F 57 °F 35 °F (1917)
Cooling Degree Days 2    
Growing Degree Days 17 (Base 50)    
Moisture  
Dew Point 66 °F    
Average Humidity 93    
Maximum Humidity 100    
Minimum Humidity 79    
Precipitation  
Precipitation 0.82 in - - ()
Sea Level Pressure  
Sea Level Pressure 29.73 in    
Wind  
Wind Speed 8 mph (SSW)    
Max Wind Speed 21 mph    
Max Gust Speed 31 mph    
Visibility 8 miles    
Events Rain , Thunderstorm    
Averages and records for this station are not official NWS values.
T = Trace of Precipitation, MM = Missing Value Source: NWS Daily Summary

Daily Weather History Graph

Daily Weather History Graph

Search for Another Location

Airport or City:

Trip Planner

Search our weather history database for the weather conditions in past years. The results will help you decide how hot, cold, wet, or windy it might be!

Date:

Astronomy

Sep. 10, 2014 Rise Set
Actual Time 6:22 AM CDT 7:04 PM CDT
Civil Twilight 5:54 AM CDT 7:32 PM CDT
Nautical Twilight 5:20 AM CDT 8:05 PM CDT
Astronomical Twilight 4:46 AM CDT 8:40 PM CDT
Moon 8:00 PM CDT (9/10) 8:10 AM CDT (9/10)
Length of Visible Light 13h 38m
Length of Day
12h 42m
Waning Gibbous, 96% of the Moon is Illuminated
Sep 10
Waning Gibbous
Sep 15
Last Quarter
Sep 24
New
Oct 1
First Quarter
Oct 8
Full

Hourly Weather History & Observations

Time (CDT) Temp. Dew Point Humidity Pressure Visibility Wind Dir Wind Speed Gust Speed Precip Events Conditions
12:15 AM 67.8 °F 61.5 °F 80% 29.91 in 10.0 mi South 4.6 mph - N/A   Scattered Clouds
12:35 AM 67.5 °F 61.5 °F 81% 29.91 in 10.0 mi South 4.6 mph - N/A   Scattered Clouds
12:55 AM 67.3 °F 61.7 °F 82% 29.90 in 10.0 mi SSE 3.5 mph - N/A   Scattered Clouds
1:15 AM 67.1 °F 61.7 °F 83% 29.90 in 10.0 mi SSE 4.6 mph - N/A   Scattered Clouds
1:35 AM 67.5 °F 61.7 °F 82% 29.89 in 10.0 mi SSE 5.8 mph - N/A   Mostly Cloudy
1:55 AM 67.3 °F 61.7 °F 82% 29.88 in 10.0 mi South 4.6 mph - N/A   Mostly Cloudy
2:15 AM 67.1 °F 61.7 °F 83% 29.87 in 10.0 mi SSE 3.5 mph - N/A   Scattered Clouds
2:35 AM 66.7 °F 61.7 °F 84% 29.86 in 10.0 mi SSE 3.5 mph - N/A   Clear
2:55 AM 66.7 °F 61.7 °F 84% 29.86 in 10.0 mi SSE 4.6 mph - N/A   Scattered Clouds
3:15 AM 66.7 °F 61.7 °F 84% 29.85 in 10.0 mi South 4.6 mph - N/A   Mostly Cloudy
3:35 AM 66.7 °F 61.7 °F 84% 29.84 in 10.0 mi South 5.8 mph - N/A   Overcast
3:55 AM 66.7 °F 61.7 °F 84% 29.84 in 10.0 mi South 6.9 mph - N/A   Light Drizzle
4:15 AM 66.7 °F 61.3 °F 83% 29.82 in 10.0 mi SSE 6.9 mph - N/A   Light Drizzle
4:35 AM 66.2 °F 61.3 °F 84% 29.82 in 10.0 mi SSE 5.8 mph - N/A   Mostly Cloudy
4:55 AM 66.2 °F 61.5 °F 85% 29.81 in 10.0 mi SSE 4.6 mph - N/A   Light Drizzle
5:15 AM 66.0 °F 61.7 °F 86% 29.81 in 10.0 mi SSE 4.6 mph - N/A Rain Rain
5:35 AM 65.5 °F 62.1 °F 89% 29.79 in 10.0 mi SE 4.6 mph - 0.01 in Rain Light Rain
5:55 AM 64.9 °F 62.8 °F 93% 29.78 in 10.0 mi SE 5.8 mph - 0.01 in Rain Light Rain
6:15 AM 64.9 °F 63.1 °F 94% 29.77 in 10.0 mi ESE 6.9 mph - 0.01 in Rain Rain
6:35 AM 64.9 °F 63.7 °F 96% 29.79 in 5.0 mi West 8.1 mph - 0.06 in Rain , Thunderstorm Heavy Thunderstorms and Rain
6:55 AM 64.0 °F 64.0 °F 100% 29.80 in 2.5 mi Calm Calm - 0.35 in Rain , Thunderstorm Heavy Thunderstorms and Rain
7:15 AM 64.0 °F 64.0 °F 100% 29.79 in 2.0 mi Calm Calm - 0.06 in Rain Heavy Rain
7:35 AM 64.4 °F 64.4 °F 100% 29.76 in 1.5 mi SE 3.5 mph - 0.14 in Rain Rain
7:55 AM 64.9 °F 64.9 °F 100% 29.75 in 2.5 mi South 6.9 mph - 0.23 in Rain Rain
8:15 AM 65.3 °F 65.3 °F 100% 29.74 in 3.0 mi SSE 5.8 mph - 0.01 in Rain Light Rain
8:35 AM 65.8 °F 65.8 °F 100% 29.72 in 2.5 mi SSE 5.8 mph - 0.05 in Rain Rain
8:55 AM 66.2 °F 66.2 °F 100% 29.71 in 1.2 mi SSE 6.9 mph - 0.20 in Rain Rain
9:15 AM - - N/A% 29.69 in 3.0 mi SSE 9.2 mph - 0.01 in Rain Light Rain
9:35 AM - - N/A% 29.69 in 5.0 mi South 8.1 mph 17.3 mph 0.02 in Rain Light Rain
9:55 AM - - N/A% 29.68 in 5.0 mi South 9.2 mph - 0.02 in Rain Light Rain
10:35 AM - - N/A% 29.66 in 4.0 mi South 11.5 mph 20.7 mph 0.01 in Rain Light Rain
10:55 AM 69.6 °F 69.6 °F 100% 29.65 in 5.0 mi South 13.8 mph 23.0 mph 0.01 in Rain Light Rain
11:15 AM 70.7 °F 70.7 °F 100% 29.63 in 7.0 mi SSW 11.5 mph 18.4 mph N/A   Overcast
11:35 AM 71.6 °F 71.6 °F 100% 29.64 in 7.0 mi SSW 19.6 mph 27.6 mph N/A   Overcast
11:55 AM 72.0 °F 72.0 °F 100% 29.64 in 7.0 mi SW 16.1 mph 24.2 mph N/A Rain Rain
12:15 PM 72.0 °F 72.0 °F 100% 29.63 in 5.0 mi SSW 20.7 mph 27.6 mph N/A   Overcast
12:35 PM 72.5 °F 72.5 °F 100% 29.62 in 7.0 mi SSW 18.4 mph 31.1 mph N/A   Overcast
12:55 PM 72.5 °F 72.5 °F 100% 29.62 in 5.0 mi SW 17.3 mph 26.5 mph N/A Rain Rain
1:15 PM 72.5 °F 72.5 °F 100% 29.63 in 10.0 mi SW 19.6 mph 25.3 mph N/A   Overcast
1:35 PM 72.5 °F 72.5 °F 100% 29.62 in 5.0 mi SW 16.1 mph 25.3 mph N/A   Overcast
1:55 PM 73.8 °F 73.8 °F 100% 29.62 in 10.0 mi SW 18.4 mph 25.3 mph N/A   Overcast
2:15 PM 74.8 °F 74.5 °F 99% 29.62 in 10.0 mi SW 17.3 mph 25.3 mph N/A   Overcast
2:35 PM 75.4 °F 74.3 °F 96% 29.61 in 10.0 mi SW 19.6 mph 25.3 mph N/A   Overcast
2:55 PM 75.2 °F 73.8 °F 95% 29.61 in 10.0 mi SW 12.7 mph 25.3 mph N/A Thunderstorm Overcast
3:15 PM 73.9 °F 73.6 °F 99% 29.61 in 10.0 mi SW 15.0 mph 21.9 mph N/A   Overcast
3:35 PM 73.4 °F 73.4 °F 100% 29.61 in 10.0 mi SW 16.1 mph 23.0 mph N/A   Overcast
3:55 PM 74.3 °F 73.8 °F 98% 29.61 in 10.0 mi SW 13.8 mph 24.2 mph N/A   Overcast
4:15 PM 74.3 °F 73.8 °F 98% 29.62 in 10.0 mi SW 13.8 mph 19.6 mph N/A   Overcast
4:35 PM 74.3 °F 73.8 °F 98% 29.61 in 10.0 mi SW 15.0 mph 18.4 mph N/A   Overcast
4:55 PM 75.2 °F 74.3 °F 97% 29.61 in 10.0 mi SW 15.0 mph 20.7 mph N/A   Overcast
5:15 PM 75.6 °F 74.3 °F 96% 29.60 in 10.0 mi SW 11.5 mph 18.4 mph N/A   Mostly Cloudy
5:35 PM 75.9 °F 74.3 °F 95% 29.61 in 10.0 mi SW 13.8 mph 20.7 mph N/A   Mostly Cloudy
5:55 PM 75.0 °F 74.1 °F 97% 29.61 in 10.0 mi SW 11.5 mph 18.4 mph N/A Thunderstorm Overcast
6:15 PM 74.7 °F 74.1 °F 98% 29.62 in 10.0 mi SW 12.7 mph 19.6 mph N/A   Mostly Cloudy
6:35 PM 74.3 °F 73.9 °F 99% 29.62 in 10.0 mi SW 11.5 mph 18.4 mph N/A   Mostly Cloudy
6:55 PM 73.8 °F 73.4 °F 99% 29.63 in 10.0 mi WSW 12.7 mph 23.0 mph N/A   Mostly Cloudy
7:15 PM 73.8 °F 69.6 °F 87% 29.64 in 10.0 mi West 16.1 mph 20.7 mph N/A   Mostly Cloudy
7:35 PM 72.5 °F 65.7 °F 79% 29.66 in 10.0 mi West 10.4 mph - N/A   Scattered Clouds
7:55 PM 72.3 °F 65.7 °F 79% 29.67 in 10.0 mi WSW 6.9 mph 16.1 mph N/A   Mostly Cloudy
8:15 PM 71.8 °F 65.3 °F 80% 29.68 in 10.0 mi WNW 9.2 mph - N/A   Overcast
8:35 PM 67.6 °F 65.8 °F 94% 29.71 in 10.0 mi NW 17.3 mph 26.5 mph N/A   Overcast
8:55 PM 64.8 °F 63.9 °F 97% 29.74 in 10.0 mi NW 18.4 mph 21.9 mph N/A   Overcast
9:15 PM 63.9 °F 61.9 °F 93% 29.74 in 10.0 mi NNW 16.1 mph 23.0 mph N/A   Overcast
9:35 PM 62.2 °F 61.0 °F 96% 29.76 in 5.0 mi NNW 17.3 mph 24.2 mph N/A Rain Light Rain
9:55 PM 61.2 °F 60.1 °F 96% 29.76 in 7.0 mi NNW 15.0 mph 24.2 mph N/A   Overcast
10:15 PM 61.3 °F 58.8 °F 91% 29.78 in 10.0 mi NNW 12.7 mph 23.0 mph N/A   Overcast
10:35 PM 61.0 °F 58.1 °F 90% 29.80 in 10.0 mi NNW 15.0 mph - N/A   Overcast
10:55 PM 60.4 °F 57.4 °F 90% 29.82 in 10.0 mi NNW 15.0 mph 21.9 mph N/A   Overcast
11:15 PM 59.9 °F 56.3 °F 88% 29.82 in 10.0 mi NW 13.8 mph - N/A   Overcast
11:35 PM 59.5 °F 56.3 °F 89% 29.83 in 10.0 mi NNW 11.5 mph 19.6 mph N/A   Overcast
11:55 PM 59.4 °F 56.5 °F 90% 29.84 in 10.0 mi NNW 15.0 mph 20.7 mph N/A   Overcast